Weather History for Corinth, MS

Change the Weather History Date:

Thursday, June 27, 2013

  Actual Average Record
Temperature  
Mean Temperature 85 °F -  
Max Temperature 93 °F 89 °F 103 °F (1952)
Min Temperature 77 °F 66 °F 53 °F (2012)
Cooling Degree Days 20    
Growing Degree Days 35 (Base 50)    
Moisture  
Dew Point 73 °F    
Average Humidity 69    
Maximum Humidity 89    
Minimum Humidity 46    
Precipitation  
Precipitation 0.00 in - - ()
Sea Level Pressure  
Sea Level Pressure 29.89 in    
Wind  
Wind Speed 7 mph (West)    
Max Wind Speed 15 mph    
Max Gust Speed 23 mph    
Visibility 10 miles    
Events      
Averages and records for this station are not official NWS values.
T = Trace of Precipitation, MM = Missing Value Source: NWS Daily Summary

Daily Weather History Graph

Daily Weather History Graph

Search for Another Location

Airport:

Trip Planner

Search our weather history database for the weather conditions in past years. The results will help you decide how hot, cold, wet, or windy it might be!

Date:

Astronomy

Jun. 27, 2013 Rise Set
Actual Time 5:42 AM CDT 8:12 PM CDT
Civil Twilight 5:13 AM CDT 8:41 PM CDT
Nautical Twilight 4:36 AM CDT 9:18 PM CDT
Astronomical Twilight 3:56 AM CDT 9:58 PM CDT
Moon 11:22 PM CDT (6/27) 10:31 AM CDT (6/27)
Length of Visible Light 15h 28m
Length of Day
14h 29m
Waning Gibbous, 76% of the Moon is Illuminated
Jun 27
Waning Gibbous
Jun 29
Last Quarter
Jul 8
New
Jul 15
First Quarter
Jul 22
Full

Hourly Weather History & Observations

Time (CDT) Temp. Heat Index Dew Point Humidity Pressure Visibility Wind Dir Wind Speed Gust Speed Precip Events Conditions
12:10 AM 80.6 °F 84.6 °F 71.6 °F 74% 29.92 in 10.0 mi SW 6.9 mph - N/A   Clear
12:30 AM 80.6 °F 84.6 °F 71.6 °F 74% 29.92 in 10.0 mi SSW 5.8 mph - N/A   Clear
12:50 AM 80.6 °F 84.6 °F 71.6 °F 74% 29.91 in 10.0 mi SW 6.9 mph - N/A   Clear
1:10 AM 80.6 °F 84.6 °F 71.6 °F 74% 29.92 in 10.0 mi SW 4.6 mph - N/A   Clear
1:30 AM 78.8 °F - 71.6 °F 78% 29.92 in 10.0 mi SSW 4.6 mph - N/A   Clear
1:50 AM 78.8 °F - 71.6 °F 78% 29.92 in 10.0 mi South 5.8 mph - N/A   Clear
2:10 AM 78.8 °F - 71.6 °F 78% 29.92 in 10.0 mi SSW 3.5 mph - N/A   Clear
2:30 AM 78.8 °F - 71.6 °F 78% 29.92 in 10.0 mi SSW 3.5 mph - N/A   Clear
2:50 AM 78.8 °F - 71.6 °F 78% 29.92 in 10.0 mi South 4.6 mph - N/A   Clear
3:10 AM 77.0 °F - 71.6 °F 83% 29.91 in 10.0 mi South 4.6 mph - N/A   Clear
3:30 AM 77.0 °F - 71.6 °F 83% 29.92 in 10.0 mi Calm Calm - N/A   Scattered Clouds
3:50 AM 77.0 °F - 71.6 °F 83% 29.92 in 10.0 mi South 4.6 mph - N/A   Mostly Cloudy
4:10 AM 77.0 °F - 71.6 °F 83% 29.91 in 10.0 mi South 5.8 mph - N/A   Scattered Clouds
4:30 AM 77.0 °F - 71.6 °F 83% 29.91 in 10.0 mi SSW 4.6 mph - N/A   Mostly Cloudy
4:50 AM 77.0 °F - 71.6 °F 83% 29.91 in 10.0 mi SW 5.8 mph - N/A   Overcast
5:10 AM 77.0 °F - 71.6 °F 83% 29.90 in 10.0 mi SW 8.1 mph - N/A   Mostly Cloudy
5:30 AM 77.0 °F - 71.6 °F 83% 29.90 in 10.0 mi WSW 8.1 mph - N/A   Mostly Cloudy
5:50 AM 77.0 °F - 71.6 °F 83% 29.90 in 10.0 mi SW 8.1 mph - N/A   Mostly Cloudy
6:10 AM 77.0 °F - 71.6 °F 83% 29.90 in 10.0 mi WSW 8.1 mph - N/A   Partly Cloudy
6:30 AM 77.0 °F - 71.6 °F 83% 29.91 in 10.0 mi WSW 9.2 mph - N/A   Clear
6:50 AM 77.0 °F - 71.6 °F 83% 29.91 in 10.0 mi WSW 8.1 mph - N/A   Mostly Cloudy
7:10 AM 77.0 °F - 71.6 °F 83% 29.91 in 10.0 mi WSW 8.1 mph 17.3 mph N/A   Mostly Cloudy
7:30 AM 78.8 °F - 71.6 °F 78% 29.92 in 10.0 mi WSW 10.4 mph - N/A   Partly Cloudy
7:50 AM 80.6 °F 85.4 °F 73.4 °F 79% 29.92 in 10.0 mi West 9.2 mph 16.1 mph N/A   Clear
8:10 AM 82.4 °F 88.2 °F 73.4 °F 74% 29.92 in 10.0 mi West 9.2 mph - N/A   Clear
8:30 AM 82.4 °F 88.2 °F 73.4 °F 74% 29.92 in 10.0 mi West 9.2 mph 17.3 mph N/A   Clear
8:50 AM 84.2 °F 90.9 °F 73.4 °F 70% 29.91 in 10.0 mi West 10.4 mph 16.1 mph N/A   Clear
9:10 AM 84.2 °F 90.9 °F 73.4 °F 70% 29.92 in 10.0 mi WNW 13.8 mph 17.3 mph N/A   Clear
9:30 AM 86.0 °F 93.4 °F 73.4 °F 66% 29.91 in 10.0 mi West 12.7 mph 17.3 mph N/A   Clear
9:50 AM 86.0 °F 93.4 °F 73.4 °F 66% 29.92 in 10.0 mi WNW 13.8 mph 19.6 mph N/A   Clear
10:10 AM 87.8 °F 97.6 °F 75.2 °F 66% 29.92 in 10.0 mi West 15.0 mph - N/A   Clear
10:30 AM 87.8 °F 97.6 °F 75.2 °F 66% 29.92 in 10.0 mi West 10.4 mph - N/A   Partly Cloudy
10:50 AM 89.6 °F 99.8 °F 75.2 °F 62% 29.92 in 10.0 mi WNW 10.4 mph 16.1 mph N/A   Clear
11:10 AM 89.6 °F 99.8 °F 75.2 °F 62% 29.91 in 10.0 mi West 10.4 mph - N/A   Partly Cloudy
11:30 AM 89.6 °F 98.2 °F 73.4 °F 59% 29.91 in 10.0 mi WNW 10.4 mph 17.3 mph N/A   Partly Cloudy
11:50 AM 89.6 °F 98.2 °F 73.4 °F 59% 29.91 in 10.0 mi West 6.9 mph 17.3 mph N/A   Clear
12:10 PM 91.4 °F 100.1 °F 73.4 °F 55% 29.91 in 10.0 mi West 9.2 mph 17.3 mph N/A   Clear
12:30 PM 91.4 °F 100.1 °F 73.4 °F 55% 29.91 in 10.0 mi WNW 15.0 mph - N/A   Clear
12:50 PM 91.4 °F 98.4 °F 71.6 °F 52% 29.91 in 10.0 mi West 12.7 mph 17.3 mph N/A   Clear
1:10 PM 93.2 °F 100.5 °F 71.6 °F 49% 29.90 in 10.0 mi WNW 11.5 mph 17.3 mph N/A   Clear
1:30 PM 93.2 °F 102.4 °F 73.4 °F 52% 29.90 in 10.0 mi WNW 11.5 mph - N/A   Clear
1:50 PM 93.2 °F 100.5 °F 71.6 °F 49% 29.90 in 10.0 mi NW 13.8 mph 23.0 mph N/A   Clear
2:10 PM 93.2 °F 100.5 °F 71.6 °F 49% 29.90 in 10.0 mi WNW 12.7 mph 16.1 mph N/A   Clear
2:30 PM 93.2 °F 100.5 °F 71.6 °F 49% 29.89 in 10.0 mi West 10.4 mph - N/A   Clear
2:50 PM 93.2 °F 102.4 °F 73.4 °F 52% 29.89 in 10.0 mi NW 10.4 mph 16.1 mph N/A   Partly Cloudy
3:10 PM 93.2 °F 100.5 °F 71.6 °F 49% 29.89 in 10.0 mi NW 11.5 mph - N/A   Partly Cloudy
3:30 PM 93.2 °F 98.8 °F 69.8 °F 46% 29.89 in 10.0 mi WNW 8.1 mph - N/A   Clear
3:50 PM 93.2 °F 100.5 °F 71.6 °F 49% 29.88 in 10.0 mi NW 10.4 mph - N/A   Clear
4:10 PM 93.2 °F 100.5 °F 71.6 °F 49% 29.88 in 10.0 mi WNW 8.1 mph - N/A   Clear
4:30 PM 93.2 °F 100.5 °F 71.6 °F 49% 29.88 in 10.0 mi WNW 10.4 mph - N/A   Clear
4:50 PM 93.2 °F 100.5 °F 71.6 °F 49% 29.87 in 10.0 mi WNW 9.2 mph - N/A   Clear
5:10 PM 93.2 °F 100.5 °F 71.6 °F 49% 29.86 in 10.0 mi NW 10.4 mph - N/A   Partly Cloudy
5:30 PM 93.2 °F 100.5 °F 71.6 °F 49% 29.86 in 10.0 mi NW 6.9 mph 16.1 mph N/A   Partly Cloudy
5:50 PM 93.2 °F 100.5 °F 71.6 °F 49% 29.85 in 10.0 mi NW 5.8 mph - N/A   Clear
6:10 PM 93.2 °F 102.4 °F 73.4 °F 52% 29.85 in 10.0 mi WNW 5.8 mph - N/A   Clear
6:30 PM 91.4 °F 100.1 °F 73.4 °F 55% 29.85 in 10.0 mi WNW 3.5 mph - N/A   Clear
6:50 PM 91.4 °F 100.1 °F 73.4 °F 55% 29.85 in 10.0 mi West 4.6 mph - N/A   Clear
7:10 PM 87.8 °F 97.6 °F 75.2 °F 66% 29.86 in 8.0 mi Calm Calm - N/A   Clear
7:30 PM 86.0 °F 95.1 °F 75.2 °F 70% 29.86 in 10.0 mi West 3.5 mph - N/A   Clear
7:50 PM 86.0 °F 95.1 °F 75.2 °F 70% 29.87 in 10.0 mi West 3.5 mph - N/A   Mostly Cloudy
8:10 PM 84.2 °F 92.3 °F 75.2 °F 74% 29.86 in 9.0 mi Calm Calm - N/A   Partly Cloudy
8:30 PM 82.4 °F 90.9 °F 77.0 °F 84% 29.87 in 10.0 mi Calm Calm - N/A   Clear
8:50 PM 82.4 °F 89.5 °F 75.2 °F 79% 29.87 in 10.0 mi Calm Calm - N/A   Clear
9:10 PM 80.6 °F 87.1 °F 77.0 °F 89% 29.86 in 10.0 mi Calm Calm - N/A   Clear
9:30 PM 80.6 °F 86.2 °F 75.2 °F 84% 29.86 in 10.0 mi Calm Calm - N/A   Clear
9:50 PM 80.6 °F 86.2 °F 75.2 °F 84% 29.85 in 10.0 mi Calm Calm - N/A   Clear
10:10 PM 80.6 °F 86.2 °F 75.2 °F 84% 29.84 in 10.0 mi South 5.8 mph - N/A   Clear
10:30 PM 80.6 °F 86.2 °F 75.2 °F 84% 29.84 in 10.0 mi South 3.5 mph - N/A   Clear
10:50 PM 80.6 °F 86.2 °F 75.2 °F 84% 29.85 in 10.0 mi Calm Calm - N/A   Clear
11:10 PM 80.6 °F 85.4 °F 73.4 °F 79% 29.86 in 10.0 mi West 3.5 mph - N/A   Clear
11:30 PM 78.8 °F - 73.4 °F 83% 29.87 in 10.0 mi West 5.8 mph - N/A   Clear
11:50 PM 78.8 °F - 73.4 °F 83% 29.87 in 10.0 mi NW 3.5 mph - N/A   Clear